Madison, SD

10:13 PM CST on December 13, 2019 (GMT -0600)
Madison Municipal

Weather History for KMDS - October, 2019

Change the Weather History Date:

Tuesday, October 8, 2019

  Actual Average Record
Temperature  
Mean Temperature 58 °F -  
Max Temperature 69 °F 62 °F 84 °F (2010)
Min Temperature 48 °F 37 °F 32 °F (2016)
Degree Days  
Heating Degree Days 6    
Growing Degree Days 8 (Base 50)    
Moisture  
Dew Point 44 °F    
Average Humidity 60    
Maximum Humidity 77    
Minimum Humidity 43    
Precipitation  
Precipitation 0.00 in - - ()
Sea Level Pressure  
Sea Level Pressure 29.83 in    
Wind  
Wind Speed 16 mph ()    
Max Wind Speed 29 mph    
Max Gust Speed 39 mph    
Visibility 10.0 miles    
Events      
Averages and records for this station are not official NWS values.
T = Trace of Precipitation, MM = Missing Value Source: Averaged Metar Reports

Daily Weather History Graph

Daily Weather History Graph

Search for Another Location

Airport or City:

Astronomy

Oct. 08, 2019 Rise Set
Actual Time 7:34 AM CDT 6:56 PM CDT
Civil Twilight 7:05 AM CDT 7:25 PM CDT
Nautical Twilight 6:31 AM CDT 7:59 PM CDT
Astronomical Twilight 5:58 AM CDT 8:32 PM CDT
Moon 5:09 PM CDT (10/8) 2:10 AM CDT (10/8)
Length of Visible Light 12h 20m
Length of Day
11h 22m
Waxing Gibbous, 78% of the Moon is Illuminated
Oct 8
Waxing Gibbous
Oct 13
Full
Oct 21
Last Quarter
Oct 27
New
Nov 4
First Quarter

Hourly Weather History & Observations

Time (CDT) Temp. Dew Point Humidity Pressure Visibility Wind Dir Wind Speed Gust Speed Precip Events Conditions
12:00 AM 53.6 °F 41.0 °F 62% 29.95 in 10.0 mi South 13.8 mph 19.6 mph N/A   Clear
12:15 AM 53.6 °F 41.0 °F 62% 29.95 in 10.0 mi South 12.7 mph 19.6 mph N/A   Clear
12:20 AM 53.6 °F 41.0 °F 62% 29.95 in 10.0 mi South 11.5 mph 19.6 mph N/A   Clear
12:35 AM 53.6 °F 41.0 °F 62% 29.95 in 10.0 mi South 11.5 mph 17.3 mph N/A   Clear
12:55 AM 53.6 °F 41.0 °F 62% 29.94 in 10.0 mi South 12.7 mph 19.6 mph N/A   Clear
1:00 AM 53.6 °F 41.0 °F 62% 29.94 in 10.0 mi South 12.7 mph 19.6 mph N/A   Clear
1:15 AM 53.6 °F 41.0 °F 62% 29.94 in 10.0 mi South 15.0 mph - N/A   Clear
1:20 AM 53.6 °F 41.0 °F 62% 29.93 in 10.0 mi South 15.0 mph - N/A   Clear
1:35 AM 51.8 °F 41.0 °F 67% 29.93 in 10.0 mi South 12.7 mph - N/A   Clear
1:55 AM 51.8 °F 41.0 °F 67% 29.93 in 10.0 mi South 12.7 mph - N/A   Clear
2:15 AM 51.8 °F 41.0 °F 67% 29.93 in 10.0 mi South 11.5 mph - N/A   Clear
2:35 AM 51.8 °F 41.0 °F 67% 29.93 in 10.0 mi South 12.7 mph - N/A   Clear
2:40 AM 51.8 °F 41.0 °F 67% 29.93 in 10.0 mi South 12.7 mph - N/A   Clear
2:55 AM 51.8 °F 41.0 °F 67% 29.92 in 10.0 mi South 12.7 mph - N/A   Clear
3:00 AM 51.8 °F 41.0 °F 67% 29.92 in 10.0 mi South 12.7 mph - N/A   Clear
3:15 AM 51.8 °F 41.0 °F 67% 29.92 in 10.0 mi South 15.0 mph 19.6 mph N/A   Clear
3:20 AM 51.8 °F 41.0 °F 67% 29.92 in 10.0 mi South 12.7 mph 19.6 mph N/A   Clear
3:35 AM 51.8 °F 41.0 °F 67% 29.91 in 10.0 mi South 11.5 mph 17.3 mph N/A   Clear
3:55 AM 50.0 °F 41.0 °F 71% 29.91 in 10.0 mi SSE 11.5 mph - N/A   Clear
4:00 AM 50.0 °F 41.0 °F 71% 29.91 in 10.0 mi South 12.7 mph - N/A   Clear
4:15 AM 50.0 °F 41.0 °F 71% 29.90 in 10.0 mi South 11.5 mph 18.4 mph N/A   Clear
4:35 AM 50.0 °F 41.0 °F 71% 29.90 in 10.0 mi South 15.0 mph 18.4 mph N/A   Clear
4:55 AM 50.0 °F 41.0 °F 71% 29.89 in 10.0 mi South 12.7 mph 19.6 mph N/A   Clear
5:15 AM 50.0 °F 41.0 °F 71% 29.89 in 10.0 mi South 13.8 mph 19.6 mph N/A   Clear
5:20 AM 50.0 °F 41.0 °F 71% 29.89 in 10.0 mi South 15.0 mph 19.6 mph N/A   Clear
5:35 AM 50.0 °F 41.0 °F 71% 29.88 in 10.0 mi South 17.3 mph 20.7 mph N/A   Clear
5:40 AM 50.0 °F 41.0 °F 71% 29.88 in 10.0 mi South 18.4 mph - N/A   Clear
5:55 AM 50.0 °F 39.2 °F 66% 29.88 in 10.0 mi South 16.1 mph 25.3 mph N/A   Clear
6:00 AM 50.0 °F 41.0 °F 71% 29.88 in 10.0 mi South 18.4 mph 25.3 mph N/A   Clear
6:15 AM 50.0 °F 39.2 °F 66% 29.87 in 10.0 mi South 17.3 mph 23.0 mph N/A   Clear
6:35 AM 50.0 °F 39.2 °F 66% 29.87 in 10.0 mi South 16.1 mph 24.2 mph N/A   Clear
6:40 AM 50.0 °F 39.2 °F 66% 29.87 in 10.0 mi South 17.3 mph 24.2 mph N/A   Clear
6:55 AM 50.0 °F 41.0 °F 71% 29.87 in 10.0 mi South 16.1 mph - N/A   Clear
7:00 AM 50.0 °F 41.0 °F 71% 29.86 in 10.0 mi South 17.3 mph - N/A   Clear
7:15 AM 50.0 °F 41.0 °F 71% 29.86 in 10.0 mi South 18.4 mph 24.2 mph N/A   Clear
7:35 AM 48.2 °F 41.0 °F 76% 29.85 in 10.0 mi South 18.4 mph 23.0 mph N/A   Clear
7:40 AM 50.0 °F 41.0 °F 71% 29.85 in 10.0 mi South 15.0 mph 25.3 mph N/A   Clear
7:55 AM 50.0 °F 41.0 °F 71% 29.85 in 10.0 mi South 18.4 mph 25.3 mph N/A   Clear
8:15 AM 50.0 °F 41.0 °F 71% 29.84 in 10.0 mi South 20.7 mph 26.5 mph N/A   Clear
8:35 AM 50.0 °F 41.0 °F 71% 29.84 in 10.0 mi South 18.4 mph 27.6 mph N/A   Clear
9:00 AM 51.8 °F 41.0 °F 67% 29.85 in 10.0 mi South 19.6 mph 27.6 mph N/A   Clear
9:15 AM 53.6 °F 41.0 °F 62% 29.84 in 10.0 mi South 23.0 mph 28.8 mph N/A   Clear
9:20 AM 53.6 °F 41.0 °F 62% 29.84 in 10.0 mi South 23.0 mph 28.8 mph N/A   Clear
9:35 AM 53.6 °F 41.0 °F 62% 29.84 in 10.0 mi South 20.7 mph 32.2 mph N/A   Clear
9:55 AM 55.4 °F 41.0 °F 58% 29.84 in 10.0 mi South 21.9 mph 33.4 mph N/A   Clear
10:15 AM 55.4 °F 41.0 °F 58% 29.84 in 10.0 mi South 20.7 mph 29.9 mph N/A   Clear
10:20 AM 55.4 °F 42.8 °F 63% 29.84 in 10.0 mi South 24.2 mph 29.9 mph N/A   Clear
10:35 AM 57.2 °F 42.8 °F 59% 29.83 in 10.0 mi SSW 26.5 mph 31.1 mph N/A   Clear
10:55 AM 57.2 °F 42.8 °F 59% 29.83 in 10.0 mi South 23.0 mph 32.2 mph N/A   Clear
11:15 AM 59.0 °F 42.8 °F 55% 29.82 in 10.0 mi South 26.5 mph 33.4 mph N/A   Clear
11:20 AM 59.0 °F 42.8 °F 55% 29.82 in 10.0 mi South 23.0 mph 33.4 mph N/A   Clear
11:35 AM 59.0 °F 44.6 °F 59% 29.82 in 10.0 mi South 26.5 mph 33.4 mph N/A   Clear
11:40 AM 59.0 °F 44.6 °F 59% 29.81 in 10.0 mi South 26.5 mph 33.4 mph N/A   Clear
11:55 AM 60.8 °F 44.6 °F 55% 29.81 in 10.0 mi South 25.3 mph 35.7 mph N/A   Clear
12:15 PM 62.6 °F 44.6 °F 52% 29.80 in 10.0 mi South 24.2 mph 32.2 mph N/A   Clear
12:20 PM 62.6 °F 44.6 °F 52% 29.80 in 10.0 mi SSW 23.0 mph 33.4 mph N/A   Clear
12:35 PM 64.4 °F 44.6 °F 49% 29.80 in 10.0 mi South 25.3 mph 35.7 mph N/A   Clear
12:55 PM 64.4 °F 44.6 °F 49% 29.79 in 10.0 mi South 26.5 mph 33.4 mph N/A   Clear
1:00 PM 64.4 °F 44.6 °F 49% 29.79 in 10.0 mi South 24.2 mph 33.4 mph N/A   Clear
1:15 PM 66.2 °F 46.4 °F 49% 29.79 in 10.0 mi South 28.8 mph 34.5 mph N/A   Clear
1:35 PM 66.2 °F 46.4 °F 49% 29.78 in 10.0 mi South 24.2 mph 34.5 mph N/A   Clear
1:55 PM 66.2 °F 46.4 °F 49% 29.78 in 10.0 mi South 24.2 mph 34.5 mph N/A   Clear
2:00 PM 66.2 °F 46.4 °F 49% 29.78 in 10.0 mi South 26.5 mph 34.5 mph N/A   Clear
2:15 PM 68.0 °F 46.4 °F 46% 29.77 in 10.0 mi South 25.3 mph 33.4 mph N/A   Clear
2:35 PM 68.0 °F 46.4 °F 46% 29.76 in 10.0 mi South 23.0 mph 39.1 mph N/A   Clear
2:55 PM 68.0 °F 46.4 °F 46% 29.76 in 10.0 mi South 23.0 mph 36.8 mph N/A   Clear
3:00 PM 68.0 °F 46.4 °F 46% 29.76 in 10.0 mi South 27.6 mph 36.8 mph N/A   Clear
3:15 PM 69.8 °F 46.4 °F 43% 29.76 in 10.0 mi South 26.5 mph 39.1 mph N/A   Clear
3:20 PM 69.8 °F 46.4 °F 43% 29.76 in 10.0 mi South 25.3 mph 39.1 mph N/A   Clear
3:35 PM 69.8 °F 46.4 °F 43% 29.76 in 10.0 mi South 21.9 mph 33.4 mph N/A   Clear
3:55 PM 69.8 °F 46.4 °F 43% 29.75 in 10.0 mi South 24.2 mph 34.5 mph N/A   Clear
4:15 PM 68.0 °F 46.4 °F 46% 29.75 in 10.0 mi South 23.0 mph 33.4 mph N/A   Clear
4:20 PM 69.8 °F 46.4 °F 43% 29.75 in 10.0 mi South 21.9 mph 33.4 mph N/A   Clear
4:35 PM 69.8 °F 46.4 °F 43% 29.75 in 10.0 mi South 19.6 mph 31.1 mph N/A   Clear
4:55 PM 69.8 °F 46.4 °F 43% 29.74 in 10.0 mi SSW 21.9 mph 28.8 mph N/A   Clear
5:15 PM 69.8 °F 46.4 °F 43% 29.74 in 10.0 mi South 21.9 mph 27.6 mph N/A   Clear
5:20 PM 69.8 °F 46.4 °F 43% 29.74 in 10.0 mi South 21.9 mph 27.6 mph N/A   Clear
5:35 PM 68.0 °F 46.4 °F 46% 29.74 in 10.0 mi South 16.1 mph 25.3 mph N/A   Clear
5:40 PM 68.0 °F 46.4 °F 46% 29.74 in 10.0 mi South 19.6 mph 25.3 mph N/A   Clear
5:55 PM 68.0 °F 46.4 °F 46% 29.74 in 10.0 mi South 17.3 mph 25.3 mph N/A   Clear
6:00 PM 68.0 °F 46.4 °F 46% 29.74 in 10.0 mi South 16.1 mph 25.3 mph N/A   Clear
6:15 PM 66.2 °F 46.4 °F 49% 29.75 in 10.0 mi South 17.3 mph 23.0 mph N/A   Clear
6:20 PM 66.2 °F 46.4 °F 49% 29.75 in 10.0 mi South 18.4 mph 25.3 mph N/A   Clear
6:35 PM 66.2 °F 46.4 °F 49% 29.75 in 10.0 mi South 16.1 mph - N/A   Clear
6:55 PM 64.4 °F 46.4 °F 52% 29.75 in 10.0 mi South 17.3 mph 24.2 mph N/A   Clear
7:15 PM 64.4 °F 46.4 °F 52% 29.75 in 10.0 mi South 17.3 mph 25.3 mph N/A   Clear
7:20 PM 62.6 °F 46.4 °F 55% 29.76 in 10.0 mi South 17.3 mph 24.2 mph N/A   Clear
7:35 PM 62.6 °F 46.4 °F 55% 29.76 in 10.0 mi South 15.0 mph 21.9 mph N/A   Clear
7:55 PM 62.6 °F 46.4 °F 55% 29.76 in 10.0 mi South 17.3 mph 21.9 mph N/A   Clear
8:00 PM 62.6 °F 46.4 °F 55% 29.77 in 10.0 mi South 16.1 mph 25.3 mph N/A   Clear
8:15 PM 62.6 °F 46.4 °F 55% 29.77 in 10.0 mi South 16.1 mph 27.6 mph N/A   Clear
8:20 PM 60.8 °F 46.4 °F 59% 29.77 in 10.0 mi South 15.0 mph 20.7 mph N/A   Clear
8:35 PM 60.8 °F 46.4 °F 59% 29.77 in 10.0 mi South 15.0 mph 21.9 mph N/A   Clear
8:55 PM 59.0 °F 46.4 °F 63% 29.77 in 10.0 mi South 17.3 mph 21.9 mph N/A   Clear
9:15 PM 59.0 °F 46.4 °F 63% 29.78 in 10.0 mi South 16.1 mph 23.0 mph N/A   Clear
9:20 PM 59.0 °F 46.4 °F 63% 29.78 in 10.0 mi South 15.0 mph 21.9 mph N/A   Clear
9:35 PM 59.0 °F 46.4 °F 63% 29.79 in 10.0 mi South 16.1 mph 23.0 mph N/A   Clear
9:55 PM 57.2 °F 46.4 °F 67% 29.79 in 10.0 mi South 15.0 mph - N/A   Clear
10:15 PM 57.2 °F 48.2 °F 72% 29.79 in 10.0 mi SSE 13.8 mph 18.4 mph N/A   Clear
10:35 PM 55.4 °F 48.2 °F 77% 29.79 in 10.0 mi South 13.8 mph - N/A   Clear
10:55 PM 55.4 °F 48.2 °F 77% 29.79 in 10.0 mi South 13.8 mph - N/A   Clear
11:00 PM 55.4 °F 48.2 °F 77% 29.79 in 10.0 mi SSE 15.0 mph 20.7 mph N/A   Clear
11:15 PM 55.4 °F 48.2 °F 77% 29.79 in 10.0 mi South 15.0 mph - N/A   Clear
11:20 PM 55.4 °F 48.2 °F 77% 29.79 in 10.0 mi South 15.0 mph - N/A   Clear
11:35 PM 55.4 °F 48.2 °F 77% 29.79 in 10.0 mi South 15.0 mph 20.7 mph N/A   Clear
11:55 PM 55.4 °F 48.2 °F 77% 29.78 in 10.0 mi South 16.1 mph 21.9 mph N/A   Clear